Hobbs, NM

6:43 AM MST on February 22, 2018 (GMT -0700)
Lea County Regional

Weather History for KHOB - April, 2014

Change the Weather History Date:

Friday, April 25, 2014

  Actual Average Record
Temperature  
Mean Temperature 68 °F -  
Max Temperature 89 °F 77 °F 96 °F (2012)
Min Temperature 48 °F 48 °F 39 °F (1950)
Cooling Degree Days 4    
Growing Degree Days 18 (Base 50)    
Moisture  
Dew Point 24 °F    
Average Humidity 22    
Maximum Humidity 49    
Minimum Humidity 8    
Precipitation  
Precipitation 0.00 in - - ()
Sea Level Pressure  
Sea Level Pressure 29.91 in    
Wind  
Wind Speed 9 mph (South)    
Max Wind Speed 22 mph    
Max Gust Speed 30 mph    
Visibility 10 miles    
Events      
Averages and records for this station are not official NWS values.
T = Trace of Precipitation, MM = Missing Value Source: NWS Daily Summary

Daily Weather History Graph

Daily Weather History Graph

Search for Another Location

Airport or City:

Trip Planner

Search our weather history database for the weather conditions in past years. The results will help you decide how hot, cold, wet, or windy it might be!

Date:

Astronomy

Apr. 25, 2014 Rise Set
Actual Time 6:11 AM MDT 7:30 PM MDT
Civil Twilight 5:46 AM MDT 7:56 PM MDT
Nautical Twilight 5:15 AM MDT 8:26 PM MDT
Astronomical Twilight 4:43 AM MDT 8:59 PM MDT
Moon 3:48 AM MDT (4/25) 4:06 PM MDT (4/25)
Length of Visible Light 14h 09m
Length of Day
13h 18m
Waning Crescent, 15% of the Moon is Illuminated
Apr 25
Waning Crescent
Apr 29
New
May 6
First Quarter
May 14
Full
May 21
Last Quarter

Hourly Weather History & Observations

Time (MDT) Temp. Dew Point Humidity Pressure Visibility Wind Dir Wind Speed Gust Speed Precip Events Conditions
12:15 AM 53.6 °F 23.0 °F 30% 30.01 in 10.0 mi South 8.1 mph - N/A   Clear
12:35 AM 53.6 °F 24.8 °F 33% 30.01 in 10.0 mi South 6.9 mph - N/A   Clear
12:55 AM 55.4 °F 24.8 °F 31% 30.01 in 10.0 mi South 4.6 mph - N/A   Clear
1:15 AM 55.4 °F 24.8 °F 31% 30.01 in 10.0 mi South 3.5 mph - N/A   Clear
1:35 AM 51.8 °F 24.8 °F 35% 30.01 in 10.0 mi South 3.5 mph - N/A   Clear
1:55 AM 55.4 °F 24.8 °F 31% 30.00 in 10.0 mi SSW 5.8 mph - N/A   Clear
2:15 AM 53.6 °F 24.8 °F 33% 30.00 in 10.0 mi SW 4.6 mph - N/A   Clear
2:35 AM 53.6 °F 24.8 °F 33% 30.00 in 10.0 mi SSW 4.6 mph - N/A   Clear
2:55 AM 55.4 °F 24.8 °F 31% 30.00 in 10.0 mi South 3.5 mph - N/A   Clear
3:15 AM 48.2 °F 24.8 °F 40% 30.00 in 10.0 mi Calm Calm - N/A   Clear
3:35 AM 50.0 °F 24.8 °F 37% 30.00 in 10.0 mi South 6.9 mph - N/A   Clear
3:55 AM 50.0 °F 24.8 °F 37% 29.99 in 10.0 mi South 8.1 mph - N/A   Clear
5:50 AM 50.0 °F 24.8 °F 37% 30.00 in 10.0 mi Calm Calm - N/A   Clear
6:50 AM 50.0 °F 24.8 °F 37% 30.00 in 10.0 mi Calm Calm - N/A   Clear
7:50 AM 59.0 °F 24.8 °F 27% 30.02 in 10.0 mi South 5.8 mph - N/A   Clear
8:50 AM 68.0 °F 26.6 °F 21% 30.01 in 10.0 mi South 17.3 mph - N/A   Clear
9:50 AM 75.2 °F 26.6 °F 17% 30.01 in 10.0 mi South 17.3 mph 24.2 mph N/A   Clear
10:50 AM 80.6 °F 23.0 °F 12% 30.00 in 10.0 mi South 17.3 mph 21.9 mph N/A   Clear
11:50 AM 82.4 °F 21.2 °F 10% 29.98 in 10.0 mi South 11.5 mph 20.7 mph N/A   Clear
12:50 PM 84.2 °F 19.4 °F 9% 29.95 in 10.0 mi SSW 11.5 mph 20.7 mph N/A   Clear
1:50 PM 87.8 °F 19.4 °F 8% 29.92 in 10.0 mi South 17.3 mph 23.0 mph N/A   Clear
2:50 PM 86.0 °F 17.6 °F 8% 29.90 in 10.0 mi South 21.9 mph 28.8 mph N/A   Clear
3:50 PM 87.8 °F 17.6 °F 8% 29.86 in 10.0 mi SSW 17.3 mph 28.8 mph N/A   Clear
4:50 PM 89.6 °F 19.4 °F 8% 29.83 in 10.0 mi South 15.0 mph 20.7 mph N/A   Clear
5:15 PM 87.8 °F 17.6 °F 8% 29.82 in 10.0 mi South 18.4 mph 29.9 mph N/A   Clear
5:35 PM 87.8 °F 19.4 °F 8% 29.82 in 10.0 mi South 18.4 mph 24.2 mph N/A   Clear
5:50 PM 86.0 °F 19.4 °F 9% 29.81 in 10.0 mi South 17.3 mph 24.2 mph N/A   Clear
5:55 PM 86.0 °F 19.4 °F 9% 29.81 in 10.0 mi South 12.7 mph 24.2 mph N/A   Clear
6:15 PM 86.0 °F 19.4 °F 9% 29.81 in 10.0 mi South 13.8 mph 20.7 mph N/A   Clear
6:35 PM 84.2 °F 19.4 °F 9% 29.81 in 10.0 mi South 13.8 mph 20.7 mph N/A   Clear
6:55 PM 84.2 °F 19.4 °F 9% 29.81 in 10.0 mi South 11.5 mph - N/A   Clear
7:15 PM 80.6 °F 19.4 °F 10% 29.82 in 10.0 mi SW 6.9 mph - N/A   Clear
7:35 PM 77.0 °F 19.4 °F 12% 29.82 in 10.0 mi SW 8.1 mph - N/A   Clear
7:55 PM 73.4 °F 17.6 °F 12% 29.83 in 10.0 mi WSW 8.1 mph - N/A   Clear
8:15 PM 71.6 °F 17.6 °F 13% 29.83 in 10.0 mi SW 8.1 mph - N/A   Clear
8:35 PM 69.8 °F 17.6 °F 14% 29.84 in 10.0 mi SW 5.8 mph - N/A   Clear
8:55 PM 66.2 °F 17.6 °F 15% 29.85 in 10.0 mi SE 9.2 mph - N/A   Clear
9:15 PM 66.2 °F 17.6 °F 15% 29.85 in 10.0 mi SSE 8.1 mph - N/A   Clear
9:35 PM 71.6 °F 17.6 °F 13% 29.85 in 10.0 mi SSE 5.8 mph - N/A   Clear
9:55 PM 69.8 °F 28.4 °F 21% 29.84 in 10.0 mi SE 9.2 mph - N/A   Clear
10:15 PM 68.0 °F 33.8 °F 28% 29.84 in 10.0 mi SSE 5.8 mph - N/A   Clear
10:35 PM 66.2 °F 33.8 °F 30% 29.85 in 10.0 mi SSE 6.9 mph - N/A   Clear
11:15 PM 68.0 °F 46.4 °F 46% 29.84 in 10.0 mi SSE 13.8 mph - N/A   Clear
11:35 PM 71.6 °F 48.2 °F 43% 29.84 in 10.0 mi SSE 15.0 mph - N/A   Clear
11:55 PM 69.8 °F 50.0 °F 49% 29.84 in 10.0 mi South 11.5 mph - N/A   Clear